Le nostre stazioni meteo in Italia

Pubblicità
Il mio iltempo24.it
Sciacca, Italia (16436): Temperatura & dewpoint: 20.08.2019 12:00:00 - 26.08.2019 12:00:00 (CEST)Sciacca, Italia (16436): velocità del vento: 20.08.2019 12:00:00 - 26.08.2019 12:00:00 (CEST)Sciacca, Italia (16436): direzione del vento: 20.08.2019 12:00:00 - 26.08.2019 12:00:00 (CEST)Sciacca, Italia (16436): reduced air pressure: 20.08.2019 12:00:00 - 26.08.2019 12:00:00 (CEST)
Data & Tempo tt [°C] td [°C] ff [km/h] ff [kn] dd ppp [hPa]
26.08.2019 12:00:00 - - - - - -
26.08.2019 11:00:00 28,5 20,2 - - - 1026,1
26.08.2019 10:00:00 27,8 21,1 - - - 1026,3
26.08.2019 09:00:00 26,3 22,3 - - - 1026,5
26.08.2019 08:00:00 23,4 21,6 - - - 1026,7
26.08.2019 07:00:00 21,4 19,5 - - - 1026,2
26.08.2019 06:00:00 21,5 19,2 0 0 N 1025,6
26.08.2019 05:00:00 22,3 19,6 0 0 N 1025,3
26.08.2019 04:00:00 22,3 19,4 0 0 N 1025,4
26.08.2019 03:00:00 22,4 18,7 0 0 N 1025,2
26.08.2019 02:00:00 23,9 19,8 0 0 N 1025,2
26.08.2019 01:00:00 24,5 19,9 0 0 N 1025,6
26.08.2019 00:00:00 24,7 19,7 0 0 N 1025,8
25.08.2019 23:00:00 25,6 19,9 0 0 N 1025,8
25.08.2019 22:00:00 25,9 20,2 2 1 NNE 1025,1
25.08.2019 21:00:00 27,3 21,1 4 2 NNO 1024,5
25.08.2019 20:00:00 28,3 19,2 13 7 O 1023,9
25.08.2019 19:00:00 29,2 16,3 - - - 1023,6
25.08.2019 18:00:00 30,1 13,8 - - - 1023,5
25.08.2019 17:00:00 30,7 12,1 - - - 1023,4
25.08.2019 16:00:00 30,2 16,6 - - - 1023,8
25.08.2019 15:00:00 29,7 17,5 - - - 1024,1
25.08.2019 14:00:00 29,1 17,6 - - - 1024,8
25.08.2019 13:00:00 30,0 17,1 15 8 SO 1025,0
25.08.2019 12:00:00 28,6 18,0 11 6 SO 1025,7
25.08.2019 11:00:00 27,3 21,8 4 2 SO 1026,2
25.08.2019 10:00:00 26,0 24,2 - - - 1026,1
25.08.2019 09:00:00 24,8 23,5 - - - 1026,3
25.08.2019 08:00:00 22,8 21,7 - - - 1026,3
25.08.2019 07:00:00 21,6 20,4 - - - 1026,1
25.08.2019 06:00:00 21,5 20,8 - - - 1025,8
25.08.2019 05:00:00 21,0 20,1 - - - 1026,1
25.08.2019 04:00:00 21,7 20,8 - - - 1025,9
25.08.2019 03:00:00 21,9 20,8 - - - 1026,1
25.08.2019 02:00:00 22,5 21,4 - - - 1025,9
25.08.2019 01:00:00 23,1 22,0 - - - 1026,1
25.08.2019 00:00:00 23,4 22,0 - - - 1026,3
24.08.2019 23:00:00 23,6 21,8 - - - 1026,4
24.08.2019 22:00:00 24,9 22,3 - - - 1026,0
24.08.2019 21:00:00 25,7 22,7 2 1 ESE 1025,4
24.08.2019 20:00:00 26,2 22,4 13 7 NO 1024,9
24.08.2019 19:00:00 27,5 22,6 16 9 O 1024,6
24.08.2019 18:00:00 28,2 22,4 13 7 OSO 1024,6
24.08.2019 17:00:00 28,6 23,0 15 8 OSO 1024,8
24.08.2019 16:00:00 28,7 24,0 15 8 OSO 1025,2
24.08.2019 15:00:00 29,0 17,5 15 8 OSO 1025,5
24.08.2019 14:00:00 28,9 15,7 13 7 OSO 1025,9
24.08.2019 13:00:00 28,6 17,7 9 5 SO 1026,4
24.08.2019 12:00:00 28,2 22,2 4 2 E 1027,0
24.08.2019 11:00:00 27,4 22,3 5 3 S 1027,1
24.08.2019 10:00:00 26,3 22,1 0 0 N 1027,2
24.08.2019 09:00:00 25,7 22,5 0 0 N 1027,4
24.08.2019 08:00:00 23,1 21,3 0 0 N 1027,4
24.08.2019 07:00:00 21,4 18,9 0 0 N 1027,3
24.08.2019 06:00:00 21,6 18,7 0 0 N 1027,0
24.08.2019 05:00:00 21,9 19,4 0 0 N 1026,8
24.08.2019 04:00:00 21,9 18,6 0 0 N 1026,6
24.08.2019 03:00:00 22,2 19,1 0 0 N 1026,6
24.08.2019 02:00:00 23,3 20,4 0 0 N 1026,6
24.08.2019 01:00:00 23,0 21,2 0 0 N 1027,1
24.08.2019 00:00:00 23,7 21,7 0 0 N 1027,1
23.08.2019 23:00:00 25,2 21,4 0 0 N 1027,0
23.08.2019 22:00:00 26,2 15,8 0 0 N 1026,8
23.08.2019 21:00:00 27,8 14,4 15 8 O 1026,0
23.08.2019 20:00:00 28,1 15,0 16 9 ONO 1025,8
23.08.2019 19:00:00 28,9 15,0 13 7 O 1025,5
23.08.2019 18:00:00 29,3 17,8 16 9 O 1025,2
23.08.2019 17:00:00 29,4 17,8 22 12 O 1025,3
23.08.2019 16:00:00 30,1 17,2 21 11 O 1025,7
23.08.2019 15:00:00 30,1 17,2 18 10 O 1025,7
23.08.2019 14:00:00 28,9 22,3 16 9 SO 1026,3
23.08.2019 13:00:00 28,1 25,1 - - - 1026,9
23.08.2019 12:00:00 28,8 21,8 5 3 S 1027,3
23.08.2019 11:00:00 27,7 21,7 5 3 SO 1027,8
23.08.2019 10:00:00 26,1 20,4 8 4 OSO 1027,8
23.08.2019 09:00:00 26,0 22,4 0 0 N 1027,4
23.08.2019 08:00:00 23,4 22,0 0 0 N 1027,4
23.08.2019 07:00:00 22,1 20,5 2 1 NE 1027,2
23.08.2019 06:00:00 22,1 20,5 0 0 N 1026,9
23.08.2019 05:00:00 22,0 20,2 0 0 N 1026,7
23.08.2019 04:00:00 22,9 21,5 0 0 N 1026,6
23.08.2019 03:00:00 23,4 21,8 0 0 N 1026,5
23.08.2019 02:00:00 23,4 22,1 0 0 N 1027,0
23.08.2019 01:00:00 24,0 22,2 0 0 N 1027,8
23.08.2019 00:00:00 24,4 20,9 0 0 N 1027,6
22.08.2019 23:00:00 25,6 21,4 0 0 N 1027,3
22.08.2019 22:00:00 25,6 21,2 0 0 N 1026,8
22.08.2019 21:00:00 26,7 22,1 - - - 1025,9
22.08.2019 20:00:00 27,9 19,1 - - - 1025,2
22.08.2019 19:00:00 29,0 15,8 13 7 O 1025,1
22.08.2019 18:00:00 29,2 22,9 11 6 OSO 1025,3
22.08.2019 17:00:00 29,5 22,4 9 5 OSO 1025,4
22.08.2019 16:00:00 29,0 24,5 - - - 1025,8
22.08.2019 15:00:00 29,0 24,1 - - - 1026,2
22.08.2019 14:00:00 28,4 24,6 - - - 1026,7
22.08.2019 13:00:00 27,6 23,4 - - - 1027,0
22.08.2019 12:00:00 27,3 22,6 - - - 1027,1
22.08.2019 11:00:00 27,3 22,6 8 4 SSO 1027,1
22.08.2019 10:00:00 26,1 22,5 5 3 SO 1027,3
22.08.2019 09:00:00 24,6 23,3 2 1 SO 1027,4
22.08.2019 08:00:00 22,6 21,9 0 0 N 1027,5
22.08.2019 07:00:00 21,2 20,3 2 1 O 1027,4
22.08.2019 06:00:00 21,3 20,4 4 2 NNE 1027,2
22.08.2019 05:00:00 21,2 20,0 2 1 N 1027,1
22.08.2019 04:00:00 21,6 20,4 0 0 N 1027,1
22.08.2019 03:00:00 21,9 20,5 0 0 N 1027,3
22.08.2019 02:00:00 22,4 21,2 0 0 N 1027,4
22.08.2019 01:00:00 22,6 21,4 0 0 N 1027,6
22.08.2019 00:00:00 23,1 21,7 2 1 NE 1027,4
21.08.2019 23:00:00 23,5 21,9 0 0 N 1027,2
21.08.2019 22:00:00 24,4 22,2 0 0 N 1027,0
21.08.2019 21:00:00 25,3 22,7 0 0 N 1026,3
21.08.2019 20:00:00 25,9 22,7 5 3 ONO 1025,7
21.08.2019 19:00:00 27,1 22,2 13 7 O 1025,6
21.08.2019 18:00:00 27,8 20,6 - - - 1025,6
21.08.2019 17:00:00 28,3 20,5 - - - 1025,8
21.08.2019 16:00:00 27,4 21,6 15 8 SO 1026,1
21.08.2019 15:00:00 27,4 21,4 - - - 1026,6
21.08.2019 14:00:00 27,0 20,8 - - - 1027,0
21.08.2019 13:00:00 27,1 22,0 - - - 1027,2
21.08.2019 12:00:00 26,7 23,5 11 6 SO 1027,7
21.08.2019 11:00:00 26,4 23,8 8 4 SSO 1028,2
21.08.2019 10:00:00 25,1 23,7 5 3 SSO 1028,5
21.08.2019 09:00:00 24,5 23,8 5 3 OSO 1028,8
21.08.2019 08:00:00 22,1 21,7 4 2 NE 1028,9
21.08.2019 07:00:00 20,7 20,3 4 2 NNE 1028,6
21.08.2019 06:00:00 20,2 19,7 0 0 N 1028,1
21.08.2019 05:00:00 20,7 20,2 0 0 N 1027,7
21.08.2019 04:00:00 21,0 20,5 4 2 NNE 1027,4
21.08.2019 03:00:00 21,2 20,7 0 0 N 1027,6
21.08.2019 02:00:00 21,6 21,1 0 0 N 1027,8
21.08.2019 01:00:00 21,2 20,3 0 0 N 1027,9
21.08.2019 00:00:00 22,1 21,2 0 0 N 1027,8
20.08.2019 23:00:00 22,4 20,8 0 0 N 1028,0
20.08.2019 22:00:00 23,5 22,1 0 0 N 1027,7
20.08.2019 21:00:00 24,4 23,0 0 0 N 1027,2
20.08.2019 20:00:00 25,2 23,2 5 3 OSO 1026,7
20.08.2019 19:00:00 25,9 22,1 - - - 1026,2
20.08.2019 18:00:00 26,6 21,5 11 6 OSO 1026,1
20.08.2019 17:00:00 27,1 22,9 9 5 OSO 1026,5
20.08.2019 16:00:00 27,1 21,8 8 4 SO 1026,7
20.08.2019 15:00:00 26,9 24,3 9 5 S 1027,1
20.08.2019 14:00:00 27,1 23,5 11 6 SO 1027,3
20.08.2019 13:00:00 26,9 24,3 13 7 OSO 1027,4
20.08.2019 12:00:00 27,2 21,9 11 6 OSO 1027,5

tt = Temperatura
td = dewpoint
ff = velocità del vento
dd = direzione del vento
ppp = reduced air pressure

Stazioni seguenti

WeatherPro
AMSI
MeteoEarth